Location: Bad Salzschlirf
(50.3750°N, 9.3000°E)
Time: 03:39:33
(UTC+02:00)

ISS - Pass Details

Date: 07 July 2020
Orbit: 417 x 421 km, 51.6° (Epoch: 08 July)

Event Time Altitude Azimuth Distance (km) Brightness Sun altitude
Exits shadow 02:37:43 36° 180° (S) 678 -3.2 -15.4°
Maximum altitude 02:38:19 40° 151° (SSE) 628 -3.2 -15.4°
Drops below altitude 10° 02:41:29 10° 81° (E) 1,498 -0.6 -15.3°
Sets 02:43:39 0° 73° (ENE) 2,364 0.6 -15.2°
